Starlink 35312

operational
NORAD ID: 65866 Int'l Des: 2025-223 Owner: SPXS Country: US Constellation: starlink
NOTLE

About Starlink 35312

Description loading...

Live Position

Loading 3D Globe...

Upcoming Passes

Altitude History

Altitude vs Time

uPlot chart will show altitude changes over time

Two-Line Element Set

1 65866U 25223N 25340.88699550 .00044025 00000-0 14883-2 0 9990
2 65866 53.1603 5.4779 0001332 85.2264 274.8889 15.30230682 9992
Epoch: Dec 6, 2025 • Age: 16 hours

Current Status

Altitude 480.3 km
Velocity 7.63 km/s
Sub-Earth Point 51.93°N, 158.26°E
Launch Date Oct 3, 2025
Age 0.1 years
Type internet

Technical Details

Classification Payload
Mass 575.00 kg
Dry Mass 530.00 kg
Total Mass 575.00 kg
Length 0.30 m
Diameter 4.10 m
Span 29.00 m
Shape Box + pan
Manufacturer SPXS
Bus Type Starlink V2MO
Phase Status In Orbit
Owner/State SPXS/US

Large Constellations

Loading constellations...